Time,TemperatureF,DewpointF,PressureIn,WindDirection,WindDirectionDegrees,WindSpeedMPH,WindSpeedGustMPH,Humidity,HourlyPrecipIn,Conditions,Clouds,dailyrainin,SoftwareType,DateUTC
2013-03-05 00:00:00,31.8,25.4,30.05,East,84,0.0,5.0,77,0.00,,---,0.00,VWS V14.01,2013-03-05 05:00:00,
2013-03-05 00:07:00,31.6,25.5,30.05,East,84,0.0,1.0,78,0.00,,---,0.00,VWS V14.01,2013-03-05 05:07:00,
2013-03-05 00:12:00,31.5,26.0,30.05,East,86,1.0,3.0,80,0.00,,---,0.00,VWS V14.01,2013-03-05 05:12:00,
2013-03-05 00:17:00,31.2,26.6,30.05,East,86,0.0,3.0,83,0.00,,---,0.00,VWS V14.01,2013-03-05 05:17:00,
2013-03-05 00:22:00,31.1,26.8,30.05,East,92,0.0,3.0,84,0.00,,---,0.00,VWS V14.01,2013-03-05 05:22:00,
2013-03-05 00:28:00,31.1,27.1,30.04,ENE,72,1.0,4.0,85,0.00,,---,0.00,VWS V14.01,2013-03-05 05:28:00,
2013-03-05 00:33:00,31.1,27.1,30.04,ENE,72,0.0,1.0,85,0.00,,---,0.00,VWS V14.01,2013-03-05 05:33:00,
2013-03-05 00:38:00,31.0,27.0,30.04,SE,127,0.0,5.0,85,0.00,,---,0.00,VWS V14.01,2013-03-05 05:38:00,
2013-03-05 00:43:00,31.0,27.3,30.04,ENE,62,1.0,5.0,86,0.00,,---,0.00,VWS V14.01,2013-03-05 05:43:00,
2013-03-05 00:48:00,30.8,27.4,30.04,ENE,63,1.0,5.0,87,0.00,,---,0.00,VWS V14.01,2013-03-05 05:48:00,
2013-03-05 00:53:00,30.8,27.7,30.03,East,80,3.0,5.0,88,0.00,,---,0.00,VWS V14.01,2013-03-05 05:53:00,
2013-03-05 00:58:00,30.8,27.7,30.03,ENE,76,7.0,7.0,88,0.00,,---,0.00,VWS V14.01,2013-03-05 05:58:00,
2013-03-05 01:03:00,30.7,27.9,30.02,ENE,69,4.0,6.0,89,0.00,,---,0.00,VWS V14.01,2013-03-05 06:03:00,
2013-03-05 01:08:00,30.6,27.5,30.02,ENE,75,1.0,6.0,88,0.00,,---,0.00,VWS V14.01,2013-03-05 06:08:00,
2013-03-05 01:13:00,30.6,27.5,30.01,East,89,1.0,7.0,88,0.00,,---,0.00,VWS V14.01,2013-03-05 06:13:00,
2013-03-05 01:18:00,30.7,27.6,30.02,ENE,76,2.0,7.0,88,0.00,,---,0.00,VWS V14.01,2013-03-05 06:18:00,
2013-03-05 01:23:00,30.7,27.6,30.02,East,87,0.0,7.0,88,0.00,,---,0.00,VWS V14.01,2013-03-05 06:23:00,
2013-03-05 01:28:00,30.8,27.7,30.01,East,80,3.0,7.0,88,0.00,,---,0.00,VWS V14.01,2013-03-05 06:28:00,
2013-03-05 01:33:00,30.7,27.3,30.01,East,80,5.0,5.0,87,0.00,,---,0.00,VWS V14.01,2013-03-05 06:33:00,
2013-03-05 01:38:00,30.5,26.8,30.01,ENE,76,4.0,6.0,86,0.00,,---,0.00,VWS V14.01,2013-03-05 06:38:00,
2013-03-05 01:43:00,30.4,26.4,30.01,East,85,3.0,7.0,85,0.00,,---,0.00,VWS V14.01,2013-03-05 06:43:00,
2013-03-05 01:48:00,30.5,26.8,30.01,East,84,1.0,7.0,86,0.00,,---,0.00,VWS V14.01,2013-03-05 06:48:00,
2013-03-05 01:53:00,30.5,26.8,30.00,East,79,3.0,7.0,86,0.00,,---,0.00,VWS V14.01,2013-03-05 06:53:00,
2013-03-05 01:58:00,30.5,26.8,30.00,ENE,65,0.0,7.0,86,0.00,,---,0.00,VWS V14.01,2013-03-05 06:58:00,
2013-03-05 02:03:00,30.5,26.8,30.00,East,86,6.0,6.0,86,0.00,,---,0.00,VWS V14.01,2013-03-05 07:03:00,
2013-03-05 02:08:00,30.5,26.5,30.00,ENE,76,4.0,7.0,85,0.00,,---,0.00,VWS V14.01,2013-03-05 07:08:00,
2013-03-05 02:13:00,30.6,26.6,30.00,ENE,67,4.0,7.0,85,0.00,,---,0.00,VWS V14.01,2013-03-05 07:13:00,
2013-03-05 02:18:00,30.6,26.4,30.00,East,86,1.0,7.0,84,0.00,,---,0.00,VWS V14.01,2013-03-05 07:18:00,
2013-03-05 02:23:00,30.7,26.5,29.99,East,88,6.0,7.0,84,0.00,,---,0.00,VWS V14.01,2013-03-05 07:23:00,
2013-03-05 02:28:00,30.7,26.5,29.99,ENE,78,4.0,8.0,84,0.00,,---,0.00,VWS V14.01,2013-03-05 07:28:00,
2013-03-05 02:33:00,30.7,26.5,29.99,ENE,76,5.0,8.0,84,0.00,,---,0.00,VWS V14.01,2013-03-05 07:33:00,
2013-03-05 02:38:00,30.6,26.4,29.99,ENE,76,7.0,8.0,84,0.00,,---,0.00,VWS V14.01,2013-03-05 07:38:00,
2013-03-05 02:43:00,30.6,26.4,29.98,ENE,63,2.0,8.0,84,0.00,,---,0.00,VWS V14.01,2013-03-05 07:43:00,
2013-03-05 02:48:00,30.5,26.2,29.98,ENE,78,4.0,8.0,84,0.00,,---,0.00,VWS V14.01,2013-03-05 07:48:00,
2013-03-05 02:53:00,30.5,26.2,29.98,ENE,77,3.0,8.0,84,0.00,,---,0.00,VWS V14.01,2013-03-05 07:53:00,
2013-03-05 02:58:00,30.5,26.2,29.98,ENE,73,5.0,8.0,84,0.00,,---,0.00,VWS V14.01,2013-03-05 07:58:00,
2013-03-05 03:03:00,30.5,26.2,29.98,ENE,74,4.0,8.0,84,0.00,,---,0.00,VWS V14.01,2013-03-05 08:03:00,
2013-03-05 03:08:00,30.5,26.2,29.97,East,79,1.0,8.0,84,0.00,,---,0.00,VWS V14.01,2013-03-05 08:08:00,
2013-03-05 03:13:00,30.5,26.0,29.97,East,99,3.0,8.0,83,0.00,,---,0.00,VWS V14.01,2013-03-05 08:13:00,
2013-03-05 03:18:00,30.6,26.1,29.97,ENE,76,2.0,8.0,83,0.00,,---,0.00,VWS V14.01,2013-03-05 08:18:00,
2013-03-05 03:23:00,30.6,25.8,29.97,ENE,76,2.0,8.0,82,0.00,,---,0.00,VWS V14.01,2013-03-05 08:23:00,
2013-03-05 03:28:00,30.6,25.8,29.97,ENE,77,3.0,8.0,82,0.00,,---,0.00,VWS V14.01,2013-03-05 08:28:00,
2013-03-05 03:33:00,30.6,25.8,29.96,ENE,61,4.0,6.0,82,0.00,,---,0.00,VWS V14.01,2013-03-05 08:33:00,
2013-03-05 03:38:00,30.6,25.5,29.96,ENE,57,4.0,7.0,81,0.00,,---,0.00,VWS V14.01,2013-03-05 08:38:00,
2013-03-05 03:43:00,30.6,25.8,29.96,East,90,3.0,7.0,82,0.00,,---,0.00,VWS V14.01,2013-03-05 08:43:00,
2013-03-05 03:48:00,30.6,25.5,29.95,ENE,60,3.0,7.0,81,0.00,,---,0.00,VWS V14.01,2013-03-05 08:48:00,
2013-03-05 03:53:00,30.6,25.5,29.95,East,81,6.0,10.0,81,0.00,,---,0.00,VWS V14.01,2013-03-05 08:53:00,
2013-03-05 03:58:00,30.6,25.5,29.95,East,94,3.0,10.0,81,0.00,,---,0.00,VWS V14.01,2013-03-05 08:58:00,
2013-03-05 04:03:00,30.5,25.4,29.95,East,94,6.0,7.0,81,0.00,,---,0.00,VWS V14.01,2013-03-05 09:03:00,
2013-03-05 04:08:00,30.3,25.2,29.95,ENE,77,3.0,7.0,81,0.00,,---,0.00,VWS V14.01,2013-03-05 09:08:00,
2013-03-05 04:13:00,30.2,25.1,29.95,ESE,114,7.0,8.0,81,0.00,,---,0.00,VWS V14.01,2013-03-05 09:13:00,
2013-03-05 04:18:00,30.0,25.2,29.94,ENE,77,4.0,8.0,82,0.00,,---,0.00,VWS V14.01,2013-03-05 09:18:00,
2013-03-05 04:23:00,29.9,25.1,29.94,East,87,3.0,8.0,82,0.00,,---,0.00,VWS V14.01,2013-03-05 09:23:00,
2013-03-05 04:28:00,29.8,25.0,29.94,East,87,6.0,9.0,82,0.00,,---,0.00,VWS V14.01,2013-03-05 09:28:00,
2013-03-05 04:33:00,29.7,25.2,29.94,East,86,6.0,9.0,83,0.00,,---,0.00,VWS V14.01,2013-03-05 09:33:00,
2013-03-05 04:38:00,29.8,25.0,29.94,ESE,119,2.0,9.0,82,0.00,,---,0.00,VWS V14.01,2013-03-05 09:38:00,
2013-03-05 04:43:00,29.9,25.1,29.94,ENE,61,5.0,9.0,82,0.00,,---,0.00,VWS V14.01,2013-03-05 09:43:00,
2013-03-05 04:48:00,30.1,25.3,29.94,East,79,1.0,10.0,82,0.00,,---,0.00,VWS V14.01,2013-03-05 09:48:00,
2013-03-05 04:53:00,30.3,25.5,29.93,East,80,3.0,10.0,82,0.00,,---,0.00,VWS V14.01,2013-03-05 09:53:00,
2013-03-05 04:58:00,30.4,25.6,29.93,ENE,75,7.0,10.0,82,0.00,,---,0.00,VWS V14.01,2013-03-05 09:58:00,
2013-03-05 05:03:00,30.5,25.7,29.94,ENE,76,3.0,6.0,82,0.00,,---,0.00,VWS V14.01,2013-03-05 10:03:00,
2013-03-05 05:08:00,30.7,25.9,29.93,East,99,3.0,14.0,82,0.00,,---,0.00,VWS V14.01,2013-03-05 10:08:00,
2013-03-05 05:13:00,30.8,25.7,29.93,East,92,2.0,14.0,81,0.00,,---,0.00,VWS V14.01,2013-03-05 10:13:00,
2013-03-05 05:18:00,30.9,25.8,29.93,East,84,6.0,14.0,81,0.00,,---,0.00,VWS V14.01,2013-03-05 10:18:00,
2013-03-05 05:23:00,30.9,25.8,29.93,East,82,1.0,14.0,81,0.00,,---,0.00,VWS V14.01,2013-03-05 10:23:00,
2013-03-05 05:28:00,31.0,25.9,29.93,ENE,61,1.0,14.0,81,0.00,,---,0.00,VWS V14.01,2013-03-05 10:28:00,
2013-03-05 05:33:00,31.0,25.9,29.93,East,86,3.0,7.0,81,0.00,,---,0.00,VWS V14.01,2013-03-05 10:33:00,
2013-03-05 05:38:00,31.0,25.6,29.93,ENE,62,4.0,7.0,80,0.00,,---,0.00,VWS V14.01,2013-03-05 10:38:00,
2013-03-05 05:43:00,31.1,25.4,29.93,ENE,74,5.0,8.0,79,0.00,,---,0.00,VWS V14.01,2013-03-05 10:43:00,
2013-03-05 05:48:00,31.2,25.5,29.93,ENE,61,3.0,8.0,79,0.00,,---,0.00,VWS V14.01,2013-03-05 10:48:00,
2013-03-05 05:53:00,31.2,25.1,29.92,East,82,5.0,9.0,78,0.00,,---,0.00,VWS V14.01,2013-03-05 10:53:00,
2013-03-05 05:58:00,31.3,25.2,29.92,East,83,5.0,9.0,78,0.00,,---,0.00,VWS V14.01,2013-03-05 10:58:00,
2013-03-05 06:03:00,31.3,25.2,29.92,East,87,5.0,9.0,78,0.00,,---,0.00,VWS V14.01,2013-03-05 11:03:00,
2013-03-05 06:08:00,31.4,25.4,29.92,East,86,1.0,9.0,78,0.00,,---,0.00,VWS V14.01,2013-03-05 11:08:00,
2013-03-05 06:13:00,31.4,25.4,29.92,ESE,121,3.0,9.0,78,0.00,,---,0.00,VWS V14.01,2013-03-05 11:13:00,
2013-03-05 06:18:00,31.4,25.4,29.92,SE,129,2.0,14.0,78,0.00,,---,0.00,VWS V14.01,2013-03-05 11:18:00,
2013-03-05 06:23:00,31.4,25.0,29.92,ESE,109,2.0,14.0,77,0.00,,---,0.00,VWS V14.01,2013-03-05 11:23:00,
2013-03-05 06:28:00,31.5,25.4,29.92,East,96,6.0,14.0,78,0.00,,---,0.00,VWS V14.01,2013-03-05 11:28:00,
2013-03-05 06:33:00,31.4,25.4,29.92,East,79,8.0,10.0,78,0.00,,---,0.00,VWS V14.01,2013-03-05 11:33:00,
2013-03-05 06:38:00,31.4,25.4,29.92,ESE,114,1.0,10.0,78,0.00,,---,0.00,VWS V14.01,2013-03-05 11:38:00,
2013-03-05 06:44:00,31.4,25.4,29.92,ESE,117,2.0,10.0,78,0.00,,---,0.00,VWS V14.01,2013-03-05 11:44:00,
2013-03-05 06:49:00,31.3,25.2,29.92,SSE,160,3.0,10.0,78,0.00,,---,0.00,VWS V14.01,2013-03-05 11:49:00,
2013-03-05 06:54:00,31.3,25.6,29.92,ESE,123,2.0,10.0,79,0.00,,---,0.00,VWS V14.01,2013-03-05 11:54:00,
2013-03-05 06:59:00,31.3,25.6,29.92,ESE,120,1.0,10.0,79,0.00,,---,0.00,VWS V14.01,2013-03-05 11:59:00,
2013-03-05 07:04:00,31.2,25.5,29.92,SE,125,2.0,9.0,79,0.00,,---,0.00,VWS V14.01,2013-03-05 12:04:00,
2013-03-05 07:09:00,31.2,25.5,29.92,East,98,1.0,9.0,79,0.00,,---,0.00,VWS V14.01,2013-03-05 12:09:00,
2013-03-05 07:14:00,31.1,25.4,29.92,SE,129,4.0,10.0,79,0.00,,---,0.00,VWS V14.01,2013-03-05 12:14:00,
2013-03-05 07:19:00,31.1,25.4,29.91,East,101,3.0,10.0,79,0.00,,---,0.00,VWS V14.01,2013-03-05 12:19:00,
2013-03-05 07:24:00,31.1,25.4,29.91,ENE,70,4.0,12.0,79,0.00,,---,0.00,VWS V14.01,2013-03-05 12:24:00,
2013-03-05 07:29:00,31.1,25.0,29.91,East,94,5.0,12.0,78,0.00,,---,0.00,VWS V14.01,2013-03-05 12:29:00,
2013-03-05 07:34:00,31.1,25.4,29.91,ENE,67,1.0,11.0,79,0.00,,---,0.00,VWS V14.01,2013-03-05 12:34:00,
2013-03-05 07:39:00,31.0,25.3,29.91,SSE,153,3.0,11.0,79,0.00,,---,0.00,VWS V14.01,2013-03-05 12:39:00,
2013-03-05 07:44:00,31.0,25.3,29.91,SSE,158,2.0,11.0,79,0.00,,---,0.00,VWS V14.01,2013-03-05 12:44:00,
2013-03-05 07:49:00,30.9,25.2,29.90,SSE,153,2.0,11.0,79,0.00,,---,0.00,VWS V14.01,2013-03-05 12:49:00,
2013-03-05 07:54:00,30.9,25.5,29.91,West,264,3.0,11.0,80,0.00,,---,0.00,VWS V14.01,2013-03-05 12:54:00,
2013-03-05 07:59:00,30.8,25.1,29.91,East,84,2.0,11.0,79,0.00,,---,0.00,VWS V14.01,2013-03-05 12:59:00,
2013-03-05 08:04:00,30.8,24.8,29.91,ESE,121,4.0,4.0,78,0.00,,---,0.00,VWS V14.01,2013-03-05 13:04:00,
2013-03-05 08:09:00,30.8,25.1,29.91,ESE,110,2.0,7.0,79,0.00,,---,0.00,VWS V14.01,2013-03-05 13:09:00,
2013-03-05 08:14:00,30.8,24.8,29.91,SSE,152,2.0,9.0,78,0.00,,---,0.00,VWS V14.01,2013-03-05 13:14:00,
2013-03-05 08:19:00,30.7,24.7,29.91,ESE,104,2.0,10.0,78,0.00,,---,0.00,VWS V14.01,2013-03-05 13:19:00,
2013-03-05 08:24:00,30.7,24.7,29.91,ENE,71,3.0,10.0,78,0.00,,---,0.00,VWS V14.01,2013-03-05 13:24:00,
2013-03-05 08:29:00,30.8,24.8,29.91,SSE,149,3.0,10.0,78,0.00,,---,0.00,VWS V14.01,2013-03-05 13:29:00,
2013-03-05 08:34:00,30.8,24.5,29.91,SE,136,2.0,9.0,77,0.00,,---,0.00,VWS V14.01,2013-03-05 13:34:00,
2013-03-05 08:39:00,30.8,24.5,29.91,East,90,5.0,9.0,77,0.00,,---,0.00,VWS V14.01,2013-03-05 13:39:00,
2013-03-05 08:44:00,30.9,24.9,29.91,ENE,77,3.0,9.0,78,0.00,,---,0.00,VWS V14.01,2013-03-05 13:44:00,
2013-03-05 08:49:00,31.0,24.6,29.91,ENE,76,3.0,9.0,77,0.00,,---,0.00,VWS V14.01,2013-03-05 13:49:00,
2013-03-05 08:54:00,31.1,24.8,29.90,ESE,119,5.0,10.0,77,0.00,,---,0.00,VWS V14.01,2013-03-05 13:54:00,
2013-03-05 08:59:00,31.3,24.9,29.90,NE,42,4.0,10.0,77,0.00,,---,0.00,VWS V14.01,2013-03-05 13:59:00,
2013-03-05 09:04:00,31.5,25.1,29.89,ENE,71,5.0,10.0,77,0.00,,---,0.00,VWS V14.01,2013-03-05 14:04:00,
2013-03-05 09:09:00,31.7,25.3,29.89,ESE,112,11.0,11.0,77,0.00,,---,0.00,VWS V14.01,2013-03-05 14:09:00,
2013-03-05 09:14:00,31.9,25.2,29.88,East,84,5.0,11.0,76,0.00,,---,0.00,VWS V14.01,2013-03-05 14:14:00,
2013-03-05 09:19:00,32.1,25.4,29.88,East,80,3.0,11.0,76,0.00,,---,0.00,VWS V14.01,2013-03-05 14:19:00,
2013-03-05 09:24:00,32.1,25.1,29.88,SE,146,1.0,13.0,75,0.00,,---,0.00,VWS V14.01,2013-03-05 14:24:00,
2013-03-05 09:29:00,32.3,25.6,29.88,East,82,0.0,13.0,76,0.00,,---,0.00,VWS V14.01,2013-03-05 14:29:00,
2013-03-05 09:34:00,32.4,25.4,29.89,ENE,78,3.0,9.0,75,0.00,,---,0.00,VWS V14.01,2013-03-05 14:34:00,
2013-03-05 09:39:00,32.5,25.8,29.89,ESE,113,2.0,9.0,76,0.00,,---,0.00,VWS V14.01,2013-03-05 14:39:00,
2013-03-05 09:44:00,32.5,25.5,29.89,ENE,76,2.0,9.0,75,0.00,,---,0.00,VWS V14.01,2013-03-05 14:44:00,
2013-03-05 09:49:00,32.5,25.5,29.89,SE,132,3.0,9.0,75,0.00,,---,0.00,VWS V14.01,2013-03-05 14:49:00,
2013-03-05 09:54:00,32.6,25.6,29.89,SE,139,2.0,9.0,75,0.00,,---,0.00,VWS V14.01,2013-03-05 14:54:00,
2013-03-05 09:59:00,32.5,25.1,29.89,ESE,111,2.0,9.0,74,0.00,,---,0.00,VWS V14.01,2013-03-05 14:59:00,
2013-03-05 10:04:00,32.4,25.0,29.89,East,100,3.0,11.0,74,0.00,,---,0.00,VWS V14.01,2013-03-05 15:04:00,
2013-03-05 10:09:00,32.4,25.4,29.89,East,96,3.0,11.0,75,0.00,,---,0.00,VWS V14.01,2013-03-05 15:09:00,
2013-03-05 10:14:00,32.6,25.6,29.88,ESE,108,7.0,11.0,75,0.00,,---,0.00,VWS V14.01,2013-03-05 15:14:00,
2013-03-05 10:19:00,32.8,25.8,29.88,ENE,65,8.0,12.0,75,0.00,,---,0.00,VWS V14.01,2013-03-05 15:19:00,
2013-03-05 10:24:00,32.6,25.6,29.87,East,89,2.0,13.0,75,0.00,,---,0.00,VWS V14.01,2013-03-05 15:24:00,
2013-03-05 10:29:00,32.6,25.2,29.87,SE,128,2.0,13.0,74,0.00,,---,0.00,VWS V14.01,2013-03-05 15:29:00,
2013-03-05 10:34:00,32.8,26.1,29.87,ENE,76,5.0,7.0,76,0.00,,---,0.00,VWS V14.01,2013-03-05 15:34:00,
2013-03-05 10:39:00,32.7,26.0,29.87,NE,44,3.0,9.0,76,0.00,,---,0.00,VWS V14.01,2013-03-05 15:39:00,
2013-03-05 10:44:00,32.9,26.2,29.87,ENE,69,3.0,9.0,76,0.00,,---,0.00,VWS V14.01,2013-03-05 15:44:00,
2013-03-05 10:49:00,33.0,26.3,29.87,SE,128,1.0,10.0,76,0.00,,---,0.00,VWS V14.01,2013-03-05 15:49:00,
2013-03-05 10:54:00,32.9,26.2,29.86,SSE,161,2.0,10.0,76,0.00,,---,0.00,VWS V14.01,2013-03-05 15:54:00,
2013-03-05 10:59:00,32.8,25.8,29.86,East,86,7.0,12.0,75,0.00,,---,0.00,VWS V14.01,2013-03-05 15:59:00,
2013-03-05 11:04:00,32.8,26.1,29.86,ENE,74,9.0,10.0,76,0.00,,---,0.00,VWS V14.01,2013-03-05 16:04:00,
2013-03-05 11:09:00,32.6,25.9,29.86,SE,140,1.0,13.0,76,0.00,,---,0.00,VWS V14.01,2013-03-05 16:09:00,
2013-03-05 11:14:00,32.6,25.6,29.86,SE,127,1.0,13.0,75,0.00,,---,0.00,VWS V14.01,2013-03-05 16:14:00,
2013-03-05 11:19:00,32.5,25.8,29.86,ENE,73,3.0,13.0,76,0.00,,---,0.00,VWS V14.01,2013-03-05 16:19:00,
2013-03-05 11:24:00,32.5,26.1,29.85,East,83,5.0,13.0,77,0.00,,---,0.00,VWS V14.01,2013-03-05 16:24:00,
2013-03-05 11:29:00,32.3,26.2,29.85,East,79,3.0,13.0,78,0.00,,---,0.00,VWS V14.01,2013-03-05 16:29:00,
2013-03-05 11:34:00,32.3,26.5,29.84,ENE,70,4.0,8.0,79,0.00,,---,0.00,VWS V14.01,2013-03-05 16:34:00,
2013-03-05 11:39:00,31.9,27.0,29.84,East,88,7.0,10.0,82,0.00,,---,0.00,VWS V14.01,2013-03-05 16:39:00,
2013-03-05 11:44:00,31.4,27.1,29.84,ESE,113,3.0,11.0,84,0.00,,---,0.00,VWS V14.01,2013-03-05 16:44:00,
2013-03-05 11:49:00,31.2,27.2,29.83,ENE,74,8.0,12.0,85,0.00,,---,0.00,VWS V14.01,2013-03-05 16:49:00,
2013-03-05 11:54:00,31.0,27.6,29.83,East,80,13.0,13.0,87,0.00,,---,0.00,VWS V14.01,2013-03-05 16:54:00,
2013-03-05 11:59:00,31.0,27.6,29.83,ESE,107,3.0,14.0,87,0.00,,---,0.00,VWS V14.01,2013-03-05 16:59:00,
2013-03-05 12:04:00,31.2,27.8,29.83,East,84,3.0,10.0,87,0.00,,---,0.00,VWS V14.01,2013-03-05 17:04:00,
2013-03-05 12:09:00,31.5,28.4,29.83,SE,124,1.0,13.0,88,0.00,,---,0.00,VWS V14.01,2013-03-05 17:09:00,
2013-03-05 12:14:00,31.7,28.3,29.83,ENE,75,3.0,13.0,87,0.00,,---,0.00,VWS V14.01,2013-03-05 17:14:00,
2013-03-05 12:19:00,31.9,28.8,29.82,ENE,75,9.0,13.0,88,0.00,,---,0.00,VWS V14.01,2013-03-05 17:19:00,
2013-03-05 12:24:00,31.6,27.9,29.81,East,84,10.0,16.0,86,0.00,,---,0.00,VWS V14.01,2013-03-05 17:24:00,
2013-03-05 12:29:00,31.4,28.0,29.81,ENE,72,9.0,16.0,87,0.00,,---,0.00,VWS V14.01,2013-03-05 17:29:00,
2013-03-05 12:34:00,31.2,27.8,29.81,East,80,11.0,13.0,87,0.00,,---,0.00,VWS V14.01,2013-03-05 17:34:00,
2013-03-05 12:39:00,31.1,27.7,29.81,ENE,67,12.0,15.0,87,0.00,,---,0.00,VWS V14.01,2013-03-05 17:39:00,
2013-03-05 12:44:00,31.0,27.9,29.80,East,79,7.0,15.0,88,0.00,,---,0.00,VWS V14.01,2013-03-05 17:44:00,
2013-03-05 12:49:00,31.1,28.0,29.81,ENE,73,9.0,15.0,88,0.00,,---,0.00,VWS V14.01,2013-03-05 17:49:00,
2013-03-05 12:54:00,31.0,27.6,29.81,East,85,8.0,15.0,87,0.00,,---,0.00,VWS V14.01,2013-03-05 17:54:00,
2013-03-05 13:00:00,31.0,27.9,29.81,East,93,8.0,15.0,88,0.00,,---,0.00,VWS V14.01,2013-03-05 18:00:00,
2013-03-05 13:05:00,30.9,27.8,29.80,SE,138,5.0,13.0,88,0.00,,---,0.00,VWS V14.01,2013-03-05 18:05:00,
2013-03-05 13:10:00,30.9,27.8,29.80,ENE,65,8.0,13.0,88,0.00,,---,0.00,VWS V14.01,2013-03-05 18:10:00,
2013-03-05 13:15:00,30.9,27.5,29.79,ENE,68,3.0,13.0,87,0.00,,---,0.00,VWS V14.01,2013-03-05 18:15:00,
2013-03-05 13:20:00,31.0,27.9,29.79,ENE,70,2.0,13.0,88,0.00,,---,0.00,VWS V14.01,2013-03-05 18:20:00,
2013-03-05 13:25:00,30.8,27.4,29.78,ENE,72,11.0,14.0,87,0.00,,---,0.00,VWS V14.01,2013-03-05 18:25:00,
2013-03-05 13:30:00,30.8,27.7,29.78,East,92,3.0,14.0,88,0.00,,---,0.00,VWS V14.01,2013-03-05 18:30:00,
2013-03-05 13:35:00,30.8,27.7,29.78,ENE,72,5.0,12.0,88,0.00,,---,0.00,VWS V14.01,2013-03-05 18:35:00,
2013-03-05 13:40:00,30.7,27.6,29.77,ENE,78,10.0,12.0,88,0.00,,---,0.00,VWS V14.01,2013-03-05 18:40:00,
2013-03-05 13:45:00,30.6,27.8,29.77,ENE,66,7.0,13.0,89,0.00,,---,0.00,VWS V14.01,2013-03-05 18:45:00,
2013-03-05 13:50:00,30.7,27.9,29.76,East,86,7.0,13.0,89,0.00,,---,0.00,VWS V14.01,2013-03-05 18:50:00,
2013-03-05 13:55:00,30.7,27.9,29.76,SSE,150,6.0,13.0,89,0.00,,---,0.00,VWS V14.01,2013-03-05 18:55:00,
2013-03-05 14:00:00,30.8,28.0,29.76,ESE,115,3.0,13.0,89,0.00,,---,0.00,VWS V14.01,2013-03-05 19:00:00,
2013-03-05 14:05:00,30.8,28.0,29.76,SE,127,6.0,13.0,89,0.00,,---,0.00,VWS V14.01,2013-03-05 19:05:00,
2013-03-05 14:10:00,30.8,28.0,29.76,ENE,77,5.0,13.0,89,0.00,,---,0.00,VWS V14.01,2013-03-05 19:10:00,
2013-03-05 14:15:00,30.7,27.9,29.75,ENE,73,10.0,14.0,89,0.00,,---,0.00,VWS V14.01,2013-03-05 19:15:00,
2013-03-05 14:20:00,30.7,27.9,29.75,ESE,119,8.0,14.0,89,0.00,,---,0.00,VWS V14.01,2013-03-05 19:20:00,
2013-03-05 14:25:00,30.7,28.1,29.75,ENE,58,2.0,14.0,90,0.00,,---,0.00,VWS V14.01,2013-03-05 19:25:00,
2013-03-05 14:30:00,30.7,28.1,29.75,East,81,7.0,14.0,90,0.00,,---,0.00,VWS V14.01,2013-03-05 19:30:00,
2013-03-05 14:35:00,30.6,28.0,29.75,ESE,104,8.0,11.0,90,0.00,,---,0.00,VWS V14.01,2013-03-05 19:35:00,
2013-03-05 14:40:00,30.7,28.1,29.74,East,99,7.0,12.0,90,0.00,,---,0.00,VWS V14.01,2013-03-05 19:40:00,
2013-03-05 14:45:00,30.7,28.4,29.74,East,93,9.0,12.0,91,0.00,,---,0.00,VWS V14.01,2013-03-05 19:45:00,
2013-03-05 14:50:00,30.7,28.4,29.73,ENE,63,10.0,12.0,91,0.00,,---,0.00,VWS V14.01,2013-03-05 19:50:00,
2013-03-05 14:55:00,30.6,28.3,29.73,East,98,7.0,12.0,91,0.00,,---,0.00,VWS V14.01,2013-03-05 19:55:00,
2013-03-05 15:00:00,30.6,28.3,29.72,ENE,61,4.0,12.0,91,0.00,,---,0.00,VWS V14.01,2013-03-05 20:00:00,
2013-03-05 15:05:00,30.5,28.2,29.72,ENE,78,10.0,12.0,91,0.00,,---,0.00,VWS V14.01,2013-03-05 20:05:00,
2013-03-05 15:10:00,30.5,28.2,29.73,ENE,70,9.0,14.0,91,0.00,,---,0.00,VWS V14.01,2013-03-05 20:10:00,
2013-03-05 15:15:00,30.4,28.1,29.72,ESE,103,8.0,14.0,91,0.00,,---,0.00,VWS V14.01,2013-03-05 20:15:00,
2013-03-05 15:20:00,30.3,28.0,29.73,East,100,6.0,14.0,91,0.00,,---,0.00,VWS V14.01,2013-03-05 20:20:00,
2013-03-05 15:25:00,30.4,28.1,29.72,SE,141,6.0,14.0,91,0.00,,---,0.00,VWS V14.01,2013-03-05 20:25:00,
2013-03-05 15:30:00,30.4,28.1,29.72,East,85,9.0,14.0,91,0.00,,---,0.00,VWS V14.01,2013-03-05 20:30:00,
2013-03-05 15:35:00,30.4,28.1,29.72,ENE,70,8.0,9.0,91,0.00,,---,0.00,VWS V14.01,2013-03-05 20:35:00,
2013-03-05 15:40:00,30.3,28.0,29.72,ENE,59,3.0,10.0,91,0.00,,---,0.00,VWS V14.01,2013-03-05 20:40:00,
2013-03-05 15:45:00,30.1,27.8,29.72,ENE,69,7.0,10.0,91,0.00,,---,0.00,VWS V14.01,2013-03-05 20:45:00,
2013-03-05 15:50:00,30.1,27.8,29.71,ENE,58,8.0,10.0,91,0.00,,---,0.00,VWS V14.01,2013-03-05 20:50:00,
2013-03-05 15:55:00,30.0,27.7,29.71,ENE,72,9.0,10.0,91,0.00,,---,0.00,VWS V14.01,2013-03-05 20:55:00,
2013-03-05 16:00:00,29.9,27.6,29.70,ENE,72,9.0,9.0,91,0.00,,---,0.00,VWS V14.01,2013-03-05 21:00:00,
2013-03-05 16:05:00,29.9,27.6,29.70,ENE,71,8.0,9.0,91,0.00,,---,0.00,VWS V14.01,2013-03-05 21:05:00,
2013-03-05 16:10:00,29.8,27.5,29.70,East,84,7.0,9.0,91,0.00,,---,0.00,VWS V14.01,2013-03-05 21:10:00,
2013-03-05 16:15:00,29.6,27.3,29.70,NE,38,4.0,11.0,91,0.00,,---,0.00,VWS V14.01,2013-03-05 21:15:00,
2013-03-05 16:20:00,29.4,27.1,29.70,East,80,9.0,13.0,91,0.00,,---,0.00,VWS V14.01,2013-03-05 21:20:00,
2013-03-05 16:25:00,29.3,27.0,29.70,East,81,8.0,13.0,91,0.00,,---,0.00,VWS V14.01,2013-03-05 21:25:00,
2013-03-05 16:30:00,29.2,26.9,29.70,NE,34,4.0,5.0,91,0.00,,---,0.00,VWS V14.01,2013-03-05 21:30:00,
2013-03-05 16:35:00,29.2,26.9,29.70,ENE,73,8.0,12.0,91,0.00,,---,0.00,VWS V14.01,2013-03-05 21:35:00,
2013-03-05 16:40:00,29.0,26.7,29.70,ENE,74,5.0,13.0,91,0.00,,---,0.00,VWS V14.01,2013-03-05 21:40:00,
2013-03-05 16:45:00,29.0,26.7,29.70,ENE,77,8.0,13.0,91,0.00,,---,0.00,VWS V14.01,2013-03-05 21:45:00,
2013-03-05 16:50:00,28.8,26.8,29.70,ENE,69,7.0,13.0,92,0.00,,---,0.00,VWS V14.01,2013-03-05 21:50:00,
2013-03-05 16:55:00,28.7,26.7,29.70,NE,53,5.0,13.0,92,0.00,,---,0.00,VWS V14.01,2013-03-05 21:55:00,
2013-03-05 17:00:00,28.5,26.5,29.70,NE,55,3.0,4.0,92,0.00,,---,0.00,VWS V14.01,2013-03-05 22:00:00,
2013-03-05 17:05:00,28.5,26.5,29.70,ENE,73,7.0,8.0,92,0.00,,---,0.00,VWS V14.01,2013-03-05 22:05:00,
2013-03-05 17:10:00,28.4,26.4,29.70,ENE,67,5.0,10.0,92,0.00,,---,0.00,VWS V14.01,2013-03-05 22:10:00,
2013-03-05 17:15:00,28.2,26.2,29.70,ENE,61,5.0,10.0,92,0.00,,---,0.00,VWS V14.01,2013-03-05 22:15:00,
2013-03-05 17:20:00,28.2,26.4,29.70,ENE,67,8.0,10.0,93,0.00,,---,0.00,VWS V14.01,2013-03-05 22:20:00,
2013-03-05 17:25:00,28.2,26.4,29.70,ENE,60,7.0,10.0,93,0.00,,---,0.00,VWS V14.01,2013-03-05 22:25:00,
2013-03-05 17:30:00,27.9,26.1,29.70,NE,49,8.0,8.0,93,0.00,,---,0.00,VWS V14.01,2013-03-05 22:30:00,
2013-03-05 17:35:00,27.7,25.9,29.70,ENE,67,5.0,9.0,93,0.00,,---,0.00,VWS V14.01,2013-03-05 22:35:00,
2013-03-05 17:40:00,27.6,25.8,29.71,NE,34,2.0,10.0,93,0.00,,---,0.00,VWS V14.01,2013-03-05 22:40:00,
2013-03-05 17:45:00,27.5,25.8,29.71,ENE,59,5.0,10.0,93,0.00,,---,0.00,VWS V14.01,2013-03-05 22:45:00,
2013-03-05 17:50:00,27.3,25.5,29.71,NE,56,3.0,10.0,93,0.00,,---,0.00,VWS V14.01,2013-03-05 22:50:00,
2013-03-05 17:55:00,27.2,25.5,29.71,NE,53,3.0,10.0,93,0.00,,---,0.00,VWS V14.01,2013-03-05 22:55:00,
2013-03-05 18:00:00,27.1,25.4,29.71,ENE,61,4.0,5.0,93,0.00,,---,0.00,VWS V14.01,2013-03-05 23:00:00,
2013-03-05 18:05:00,27.0,25.2,29.71,NE,39,8.0,8.0,93,0.00,,---,0.00,VWS V14.01,2013-03-05 23:05:00,
2013-03-05 18:10:00,27.0,25.2,29.72,ENE,57,4.0,8.0,93,0.00,,---,0.00,VWS V14.01,2013-03-05 23:10:00,
2013-03-05 18:15:00,27.0,25.2,29.72,North,9,4.0,8.0,93,0.00,,---,0.00,VWS V14.01,2013-03-05 23:15:00,
2013-03-05 18:20:00,27.1,25.4,29.72,NNE,30,5.0,8.0,93,0.00,,---,0.00,VWS V14.01,2013-03-05 23:20:00,
2013-03-05 18:25:00,27.2,25.5,29.72,NE,41,4.0,8.0,93,0.00,,---,0.00,VWS V14.01,2013-03-05 23:25:00,
2013-03-05 18:30:00,27.2,25.5,29.72,NNE,12,5.0,6.0,93,0.00,,---,0.00,VWS V14.01,2013-03-05 23:30:00,
2013-03-05 18:35:00,27.2,25.5,29.72,NE,51,3.0,7.0,93,0.00,,---,0.00,VWS V14.01,2013-03-05 23:35:00,
2013-03-05 18:40:00,27.2,25.5,29.72,NNE,23,5.0,10.0,93,0.00,,---,0.00,VWS V14.01,2013-03-05 23:40:00,
2013-03-05 18:45:00,27.2,25.7,29.72,NE,48,5.0,10.0,94,0.00,,---,0.00,VWS V14.01,2013-03-05 23:45:00,
2013-03-05 18:50:00,27.3,25.8,29.72,NE,44,6.0,10.0,94,0.00,,---,0.00,VWS V14.01,2013-03-05 23:50:00,
2013-03-05 18:55:00,27.4,25.9,29.72,North,9,10.0,10.0,94,0.00,,---,0.00,VWS V14.01,2013-03-05 23:55:00,
2013-03-05 19:00:00,27.4,25.9,29.72,NNE,15,12.0,12.0,94,0.00,,---,0.00,VWS V14.01,2013-03-06 00:00:00,
2013-03-05 19:05:00,27.5,26.0,29.72,ENE,71,5.0,12.0,94,0.00,,---,0.00,VWS V14.01,2013-03-06 00:05:00,
2013-03-05 19:10:00,27.6,26.1,29.72,NE,37,7.0,12.0,94,0.00,,---,0.00,VWS V14.01,2013-03-06 00:10:00,
2013-03-05 19:15:00,27.6,26.1,29.72,NE,49,7.0,12.0,94,0.00,,---,0.00,VWS V14.01,2013-03-06 00:15:00,
2013-03-05 19:20:00,27.7,26.2,29.72,NE,41,5.0,12.0,94,0.00,,---,0.00,VWS V14.01,2013-03-06 00:20:00,
2013-03-05 19:25:00,27.7,26.2,29.72,NNE,28,4.0,12.0,94,0.00,,---,0.00,VWS V14.01,2013-03-06 00:25:00,
2013-03-05 19:31:00,27.7,26.2,29.72,NE,42,6.0,6.0,94,0.00,,---,0.00,VWS V14.01,2013-03-06 00:31:00,
2013-03-05 19:36:00,27.8,26.3,29.71,NNE,24,7.0,9.0,94,0.00,,---,0.00,VWS V14.01,2013-03-06 00:36:00,
2013-03-05 19:41:00,27.8,26.3,29.71,North,5,9.0,9.0,94,0.00,,---,0.00,VWS V14.01,2013-03-06 00:41:00,
2013-03-05 19:46:00,27.9,26.4,29.71,NNE,30,8.0,12.0,94,0.00,,---,0.00,VWS V14.01,2013-03-06 00:46:00,
2013-03-05 19:51:00,27.9,26.4,29.71,NE,42,7.0,12.0,94,0.00,,---,0.00,VWS V14.01,2013-03-06 00:51:00,
2013-03-05 19:56:00,28.0,26.5,29.70,NNE,15,11.0,12.0,94,0.00,,---,0.00,VWS V14.01,2013-03-06 00:56:00,
2013-03-05 20:01:00,28.0,26.5,29.70,NNE,13,11.0,11.0,94,0.00,,---,0.00,VWS V14.01,2013-03-06 01:01:00,
2013-03-05 20:06:00,28.1,26.6,29.70,North,9,7.0,11.0,94,0.00,,---,0.00,VWS V14.01,2013-03-06 01:06:00,
2013-03-05 20:11:00,28.2,26.7,29.70,North,355,8.0,13.0,94,0.00,,---,0.00,VWS V14.01,2013-03-06 01:11:00,
2013-03-05 20:16:00,28.3,26.8,29.70,North,5,8.0,13.0,94,0.00,,---,0.00,VWS V14.01,2013-03-06 01:16:00,
2013-03-05 20:21:00,28.4,26.9,29.70,NNE,28,7.0,13.0,94,0.00,,---,0.00,VWS V14.01,2013-03-06 01:21:00,
2013-03-05 20:26:00,28.4,26.9,29.70,NNE,31,7.0,13.0,94,0.00,,---,0.00,VWS V14.01,2013-03-06 01:26:00,
2013-03-05 20:31:00,28.5,27.0,29.70,NNE,24,7.0,10.0,94,0.00,,---,0.00,VWS V14.01,2013-03-06 01:31:00,
2013-03-05 20:36:00,28.5,27.2,29.70,NNE,28,7.0,12.0,95,0.00,,---,0.00,VWS V14.01,2013-03-06 01:36:00,
2013-03-05 20:41:00,28.5,27.2,29.70,NNE,15,10.0,12.0,95,0.00,,---,0.00,VWS V14.01,2013-03-06 01:41:00,
2013-03-05 20:46:00,28.6,27.4,29.70,NE,40,9.0,12.0,95,0.00,,---,0.00,VWS V14.01,2013-03-06 01:46:00,
2013-03-05 20:51:00,28.6,27.4,29.70,North,5,6.0,12.0,95,0.00,,---,0.00,VWS V14.01,2013-03-06 01:51:00,
2013-03-05 20:56:00,28.6,27.4,29.71,NNE,24,4.0,13.0,95,0.00,,---,0.00,VWS V14.01,2013-03-06 01:56:00,
2013-03-05 21:01:00,28.7,27.5,29.71,NE,35,5.0,9.0,95,0.00,,---,0.00,VWS V14.01,2013-03-06 02:01:00,
2013-03-05 21:06:00,28.7,27.2,29.71,North,360,5.0,10.0,94,0.00,,---,0.00,VWS V14.01,2013-03-06 02:06:00,
2013-03-05 21:11:00,28.7,27.2,29.71,ENE,62,7.0,11.0,94,0.00,,---,0.00,VWS V14.01,2013-03-06 02:11:00,
2013-03-05 21:16:00,28.8,27.3,29.72,NE,40,5.0,11.0,94,0.00,,---,0.00,VWS V14.01,2013-03-06 02:16:00,
2013-03-05 21:21:00,28.9,27.6,29.72,NNE,28,5.0,11.0,95,0.00,,---,0.00,VWS V14.01,2013-03-06 02:21:00,
2013-03-05 21:26:00,28.9,27.6,29.73,NNE,32,4.0,11.0,95,0.00,,---,0.00,VWS V14.01,2013-03-06 02:26:00,
2013-03-05 21:31:00,29.0,27.8,29.73,North,5,6.0,9.0,95,0.00,,---,0.00,VWS V14.01,2013-03-06 02:31:00,
2013-03-05 21:36:00,29.0,27.8,29.73,NNE,13,7.0,9.0,95,0.00,,---,0.00,VWS V14.01,2013-03-06 02:36:00,
2013-03-05 21:41:00,29.1,27.9,29.73,NNE,22,5.0,12.0,95,0.00,,---,0.00,VWS V14.01,2013-03-06 02:41:00,
2013-03-05 21:46:00,29.2,28.0,29.73,NE,38,7.0,12.0,95,0.00,,---,0.00,VWS V14.01,2013-03-06 02:46:00,
2013-03-05 21:51:00,29.2,28.0,29.73,NNE,17,4.0,12.0,95,0.00,,---,0.00,VWS V14.01,2013-03-06 02:51:00,
2013-03-05 21:56:00,29.3,28.0,29.74,NNE,24,5.0,12.0,95,0.00,,---,0.00,VWS V14.01,2013-03-06 02:56:00,
2013-03-05 22:01:00,29.3,28.0,29.74,North,9,6.0,10.0,95,0.00,,---,0.00,VWS V14.01,2013-03-06 03:01:00,
2013-03-05 22:06:00,29.4,28.1,29.74,NNE,17,11.0,11.0,95,0.00,,---,0.00,VWS V14.01,2013-03-06 03:06:00,
2013-03-05 22:11:00,29.4,28.1,29.74,NNE,13,6.0,11.0,95,0.00,,---,0.00,VWS V14.01,2013-03-06 03:11:00,
2013-03-05 22:16:00,29.4,28.1,29.75,NNE,19,4.0,11.0,95,0.00,,---,0.00,VWS V14.01,2013-03-06 03:16:00,
2013-03-05 22:21:00,29.5,28.2,29.75,NNE,17,7.0,11.0,95,0.00,,---,0.00,VWS V14.01,2013-03-06 03:21:00,
2013-03-05 22:26:00,29.5,28.2,29.75,North,360,10.0,12.0,95,0.00,,---,0.00,VWS V14.01,2013-03-06 03:26:00,
2013-03-05 22:31:00,29.4,28.1,29.75,North,5,5.0,12.0,95,0.00,,---,0.00,VWS V14.01,2013-03-06 03:31:00,
2013-03-05 22:36:00,29.3,28.0,29.75,NNE,27,15.0,15.0,95,0.00,,---,0.00,VWS V14.01,2013-03-06 03:36:00,
2013-03-05 22:41:00,29.0,27.8,29.75,NE,46,7.0,17.0,95,0.00,,---,0.00,VWS V14.01,2013-03-06 03:41:00,
2013-03-05 22:46:00,28.9,27.6,29.76,North,5,9.0,17.0,95,0.00,,---,0.00,VWS V14.01,2013-03-06 03:46:00,
2013-03-05 22:51:00,28.8,27.5,29.76,North,9,7.0,17.0,95,0.00,,---,0.00,VWS V14.01,2013-03-06 03:51:00,
2013-03-05 22:56:00,28.7,27.5,29.76,North,5,12.0,18.0,95,0.00,,---,0.00,VWS V14.01,2013-03-06 03:56:00,
2013-03-05 23:01:00,28.5,27.2,29.76,NE,51,6.0,7.0,95,0.00,,---,0.00,VWS V14.01,2013-03-06 04:01:00,
2013-03-05 23:06:00,28.5,27.2,29.76,NNE,15,8.0,12.0,95,0.00,,---,0.00,VWS V14.01,2013-03-06 04:06:00,
2013-03-05 23:11:00,28.5,27.2,29.77,NE,38,9.0,12.0,95,0.00,,---,0.00,VWS V14.01,2013-03-06 04:11:00,
2013-03-05 23:16:00,28.3,27.0,29.77,NNE,22,10.0,15.0,95,0.00,,---,0.00,VWS V14.01,2013-03-06 04:16:00,
2013-03-05 23:21:00,28.2,27.0,29.77,NNE,30,10.0,15.0,95,0.00,,---,0.00,VWS V14.01,2013-03-06 04:21:00,
2013-03-05 23:26:00,28.0,26.8,29.77,NNE,23,12.0,15.0,95,0.00,,---,0.00,VWS V14.01,2013-03-06 04:26:00,
2013-03-05 23:31:00,27.9,26.7,29.77,North,5,12.0,17.0,95,0.00,,---,0.00,VWS V14.01,2013-03-06 04:31:00,
2013-03-05 23:36:00,27.7,26.2,29.77,NNE,15,9.0,18.0,94,0.00,,---,0.00,VWS V14.01,2013-03-06 04:36:00,
2013-03-05 23:41:00,27.6,26.1,29.78,NNE,26,14.0,18.0,94,0.00,,---,0.00,VWS V14.01,2013-03-06 04:41:00,
2013-03-05 23:46:00,27.5,26.0,29.78,NNE,19,16.0,18.0,94,0.00,,---,0.00,VWS V14.01,2013-03-06 04:46:00,
2013-03-05 23:51:00,27.5,26.0,29.78,North,360,12.0,18.0,94,0.00,,---,0.00,VWS V14.01,2013-03-06 04:51:00,
2013-03-05 23:56:00,27.3,25.8,29.78,NNE,18,10.0,18.0,94,0.00,,---,0.00,VWS V14.01,2013-03-06 04:56:00,